owner,sensor,date,latitude,longitude,vertical_datum,wind_speed,wind_to_direction,wind_speed_of_gust,qcFlag 
WAVCIS,ioos:station:WAVCIS:CSI09:1,2017-01-01T00:00:00Z,29.1015,-89.9782,0.0,10.5,177.0,,'11111222,11111222,99999999' 
WAVCIS,ioos:station:WAVCIS:CSI09:1,2017-01-01T01:00:00Z,29.1015,-89.9782,0.0,11.79,170.0,,'11111222,11111222,99999999' 
WAVCIS,ioos:station:WAVCIS:CSI09:1,2017-01-01T02:00:00Z,29.1015,-89.9782,0.0,13.06,177.0,,'11111222,11111222,99999999' 
WAVCIS,ioos:station:WAVCIS:CSI09:1,2017-01-01T03:00:00Z,29.1015,-89.9782,0.0,11.94,179.0,,'11111222,11111222,99999999' 
WAVCIS,ioos:station:WAVCIS:CSI09:1,2017-01-01T04:00:00Z,29.1015,-89.9782,0.0,11.31,177.0,,'11111222,11111222,99999999' 
WAVCIS,ioos:station:WAVCIS:CSI09:1,2017-01-01T05:00:00Z,29.1015,-89.9782,0.0,12.61,180.0,,'11111222,11111222,99999999' 
WAVCIS,ioos:station:WAVCIS:CSI09:1,2017-01-01T06:00:00Z,29.1015,-89.9782,0.0,11.72,179.0,,'11111222,11111222,99999999' 
WAVCIS,ioos:station:WAVCIS:CSI09:1,2017-01-01T07:00:00Z,29.1015,-89.9782,0.0,11.23,182.0,,'11111222,11111222,99999999' 
WAVCIS,ioos:station:WAVCIS:CSI09:1,2017-01-01T08:00:00Z,29.1015,-89.9782,0.0,8.54,186.0,,'11111222,11111222,99999999' 
WAVCIS,ioos:station:WAVCIS:CSI09:1,2017-01-01T09:00:00Z,29.1015,-89.9782,0.0,9.36,182.0,,'11111222,11111222,99999999' 
WAVCIS,ioos:station:WAVCIS:CSI09:1,2017-01-01T10:00:00Z,29.1015,-89.9782,0.0,5.926,189.0,,'11111222,11111222,99999999' 
WAVCIS,ioos:station:WAVCIS:CSI09:1,2017-01-01T11:00:00Z,29.1015,-89.9782,0.0,6.478,186.0,,'11111222,11111222,99999999' 
WAVCIS,ioos:station:WAVCIS:CSI09:1,2017-01-01T12:00:00Z,29.1015,-89.9782,0.0,9.62,180.0,,'11111222,11111222,99999999' 
WAVCIS,ioos:station:WAVCIS:CSI09:1,2017-01-01T13:00:00Z,29.1015,-89.9782,0.0,5.556,187.0,,'11111222,11111222,99999999' 
WAVCIS,ioos:station:WAVCIS:CSI09:1,2017-01-01T14:00:00Z,29.1015,-89.9782,0.0,4.732,196.0,,'11111222,11111222,99999999' 
WAVCIS,ioos:station:WAVCIS:CSI09:1,2017-01-01T15:00:00Z,29.1015,-89.9782,0.0,4.355,202.0,,'11111222,11111222,99999999' 
WAVCIS,ioos:station:WAVCIS:CSI09:1,2017-01-01T16:00:00Z,29.1015,-89.9782,0.0,4.651,206.0,,'11111222,11111222,99999999' 
WAVCIS,ioos:station:WAVCIS:CSI09:1,2017-01-01T17:00:00Z,29.1015,-89.9782,0.0,5.044,213.0,,'11111222,11111222,99999999' 
WAVCIS,ioos:station:WAVCIS:CSI09:1,2017-01-01T18:00:00Z,29.1015,-89.9782,0.0,5.018,209.0,,'11111222,11111222,99999999' 
WAVCIS,ioos:station:WAVCIS:CSI09:1,2017-01-01T19:00:00Z,29.1015,-89.9782,0.0,3.466,201.0,,'11111222,11111222,99999999' 
WAVCIS,ioos:station:WAVCIS:CSI09:1,2017-01-01T20:00:00Z,29.1015,-89.9782,0.0,3.912,186.0,,'11111222,11111222,99999999' 
WAVCIS,ioos:station:WAVCIS:CSI09:1,2017-01-01T21:00:00Z,29.1015,-89.9782,0.0,4.608,182.0,,'11111222,11111222,99999999' 
WAVCIS,ioos:station:WAVCIS:CSI09:1,2017-01-01T22:00:00Z,29.1015,-89.9782,0.0,6.82,176.0,,'11111222,11111222,99999999' 
WAVCIS,ioos:station:WAVCIS:CSI09:1,2017-01-01T23:00:00Z,29.1015,-89.9782,0.0,8.37,250.0,,'11111222,11111222,99999999' 
WAVCIS,ioos:station:WAVCIS:CSI09:1,2017-01-02T00:00:00Z,29.1015,-89.9782,0.0,4.276,261.0,,'11111222,11111222,99999999' 
WAVCIS,ioos:station:WAVCIS:CSI09:1,2017-01-02T01:00:00Z,29.1015,-89.9782,0.0,1.799,247.0,,'11111222,11111222,99999999' 
WAVCIS,ioos:station:WAVCIS:CSI09:1,2017-01-02T02:00:00Z,29.1015,-89.9782,0.0,4.351,149.0,,'11111222,11111222,99999999' 
WAVCIS,ioos:station:WAVCIS:CSI09:1,2017-01-02T03:00:00Z,29.1015,-89.9782,0.0,7.17,36.0,,'11111222,11111222,99999999' 
WAVCIS,ioos:station:WAVCIS:CSI09:1,2017-01-02T04:00:00Z,29.1015,-89.9782,0.0,7.69,66.0,,'11111222,11111222,99999999' 
WAVCIS,ioos:station:WAVCIS:CSI09:1,2017-01-02T05:00:00Z,29.1015,-89.9782,0.0,7.96,84.0,,'11111222,11111222,99999999' 
WAVCIS,ioos:station:WAVCIS:CSI09:1,2017-01-02T06:00:00Z,29.1015,-89.9782,0.0,8.63,83.0,,'11111222,11111222,99999999' 
WAVCIS,ioos:station:WAVCIS:CSI09:1,2017-01-02T07:00:00Z,29.1015,-89.9782,0.0,5.654,83.0,,'11111222,11111222,99999999' 
WAVCIS,ioos:station:WAVCIS:CSI09:1,2017-01-02T08:00:00Z,29.1015,-89.9782,0.0,7.27,124.0,,'11111222,11111222,99999999' 
WAVCIS,ioos:station:WAVCIS:CSI09:1,2017-01-02T09:00:00Z,29.1015,-89.9782,0.0,6.458,118.0,,'11111222,11111222,99999999' 
WAVCIS,ioos:station:WAVCIS:CSI09:1,2017-01-02T10:00:00Z,29.1015,-89.9782,0.0,6.219,127.0,,'11111222,11111222,99999999' 
WAVCIS,ioos:station:WAVCIS:CSI09:1,2017-01-02T11:00:00Z,29.1015,-89.9782,0.0,6.418,128.0,,'11111222,11111222,99999999' 
WAVCIS,ioos:station:WAVCIS:CSI09:1,2017-01-02T12:00:00Z,29.1015,-89.9782,0.0,7.41,138.0,,'11111222,11111222,99999999' 
WAVCIS,ioos:station:WAVCIS:CSI09:1,2017-01-02T13:00:00Z,29.1015,-89.9782,0.0,7.67,146.0,,'11111222,11111222,99999999' 
WAVCIS,ioos:station:WAVCIS:CSI09:1,2017-01-02T14:00:00Z,29.1015,-89.9782,0.0,8.76,154.0,,'11111222,11111222,99999999' 
WAVCIS,ioos:station:WAVCIS:CSI09:1,2017-01-02T15:00:00Z,29.1015,-89.9782,0.0,7.15,165.0,,'11111222,11111222,99999999' 
WAVCIS,ioos:station:WAVCIS:CSI09:1,2017-01-02T16:00:00Z,29.1015,-89.9782,0.0,11.02,165.0,,'11111222,11111222,99999999' 
WAVCIS,ioos:station:WAVCIS:CSI09:1,2017-01-02T17:00:00Z,29.1015,-89.9782,0.0,11.58,173.0,,'11111222,11111222,99999999' 
WAVCIS,ioos:station:WAVCIS:CSI09:1,2017-01-02T18:00:00Z,29.1015,-89.9782,0.0,9.98,181.0,,'11111222,11111222,99999999' 
WAVCIS,ioos:station:WAVCIS:CSI09:1,2017-01-02T19:00:00Z,29.1015,-89.9782,0.0,6.083,195.0,,'11111222,11111222,99999999' 
WAVCIS,ioos:station:WAVCIS:CSI09:1,2017-01-02T20:00:00Z,29.1015,-89.9782,0.0,10.05,204.0,,'11111222,11111222,99999999' 
WAVCIS,ioos:station:WAVCIS:CSI09:1,2017-01-02T21:00:00Z,29.1015,-89.9782,0.0,9.95,206.0,,'11111222,11111222,99999999' 
WAVCIS,ioos:station:WAVCIS:CSI09:1,2017-01-02T22:00:00Z,29.1015,-89.9782,0.0,8.62,205.0,,'11111222,11111222,99999999' 
WAVCIS,ioos:station:WAVCIS:CSI09:1,2017-01-02T23:00:00Z,29.1015,-89.9782,0.0,8.27,206.0,,'11111222,11111222,99999999' 
WAVCIS,ioos:station:WAVCIS:CSI09:1,2017-01-03T00:00:00Z,29.1015,-89.9782,0.0,5.354,202.0,,'11111222,11111222,99999999' 
WAVCIS,ioos:station:WAVCIS:CSI09:1,2017-01-03T01:00:00Z,29.1015,-89.9782,0.0,7.45,204.0,,'11111222,11111222,99999999' 
WAVCIS,ioos:station:WAVCIS:CSI09:1,2017-01-03T02:00:00Z,29.1015,-89.9782,0.0,7.21,234.0,,'11111222,11111222,99999999' 
WAVCIS,ioos:station:WAVCIS:CSI09:1,2017-01-03T03:00:00Z,29.1015,-89.9782,0.0,3.933,211.0,,'11111222,11111222,99999999' 
WAVCIS,ioos:station:WAVCIS:CSI09:1,2017-01-03T04:00:00Z,29.1015,-89.9782,0.0,6.629,179.0,,'11111222,11111222,99999999' 
WAVCIS,ioos:station:WAVCIS:CSI09:1,2017-01-03T05:00:00Z,29.1015,-89.9782,0.0,3.903,209.0,,'11111222,11111222,99999999' 
WAVCIS,ioos:station:WAVCIS:CSI09:1,2017-01-03T06:00:00Z,29.1015,-89.9782,0.0,3.872,209.0,,'11111222,11111222,99999999' 
WAVCIS,ioos:station:WAVCIS:CSI09:1,2017-01-03T07:00:00Z,29.1015,-89.9782,0.0,6.104,221.0,,'11111222,11111222,99999999' 
WAVCIS,ioos:station:WAVCIS:CSI09:1,2017-01-03T08:00:00Z,29.1015,-89.9782,0.0,7.42,297.0,,'11111222,11111222,99999999' 
WAVCIS,ioos:station:WAVCIS:CSI09:1,2017-01-03T09:00:00Z,29.1015,-89.9782,0.0,7.35,316.0,,'11111222,11111222,99999999' 
WAVCIS,ioos:station:WAVCIS:CSI09:1,2017-01-03T10:00:00Z,29.1015,-89.9782,0.0,5.593,315.0,,'11111222,11111222,99999999' 
WAVCIS,ioos:station:WAVCIS:CSI09:1,2017-01-03T11:00:00Z,29.1015,-89.9782,0.0,6.088,324.0,,'11111222,11111222,99999999' 
WAVCIS,ioos:station:WAVCIS:CSI09:1,2017-01-03T12:00:00Z,29.1015,-89.9782,0.0,6.733,332.0,,'11111222,11111222,99999999' 
WAVCIS,ioos:station:WAVCIS:CSI09:1,2017-01-03T13:00:00Z,29.1015,-89.9782,0.0,5.977,325.0,,'11111222,11111222,99999999' 
WAVCIS,ioos:station:WAVCIS:CSI09:1,2017-01-03T14:00:00Z,29.1015,-89.9782,0.0,3.753,341.0,,'11111222,11111222,99999999' 
WAVCIS,ioos:station:WAVCIS:CSI09:1,2017-01-03T15:00:00Z,29.1015,-89.9782,0.0,1.87,65.0,,'11111222,11111222,99999999' 
WAVCIS,ioos:station:WAVCIS:CSI09:1,2017-01-03T16:00:00Z,29.1015,-89.9782,0.0,1.47,94.0,,'11111222,11111222,99999999' 
WAVCIS,ioos:station:WAVCIS:CSI09:1,2017-01-03T17:00:00Z,29.1015,-89.9782,0.0,1.124,119.0,,'11111222,11111222,99999999' 
WAVCIS,ioos:station:WAVCIS:CSI09:1,2017-01-03T18:00:00Z,29.1015,-89.9782,0.0,0.78,183.0,,'11111222,11111222,99999999' 
WAVCIS,ioos:station:WAVCIS:CSI09:1,2017-01-03T19:00:00Z,29.1015,-89.9782,0.0,1.368,253.0,,'11111222,11111222,99999999' 
WAVCIS,ioos:station:WAVCIS:CSI09:1,2017-01-03T20:00:00Z,29.1015,-89.9782,0.0,3.239,233.0,,'11111222,11111222,99999999' 
WAVCIS,ioos:station:WAVCIS:CSI09:1,2017-01-03T21:00:00Z,29.1015,-89.9782,0.0,4.24,235.0,,'11111222,11111222,99999999' 
WAVCIS,ioos:station:WAVCIS:CSI09:1,2017-01-03T22:00:00Z,29.1015,-89.9782,0.0,5.948,242.0,,'11111222,11111222,99999999' 
WAVCIS,ioos:station:WAVCIS:CSI09:1,2017-01-03T23:00:00Z,29.1015,-89.9782,0.0,7.47,257.0,,'11111222,11111222,99999999' 
WAVCIS,ioos:station:WAVCIS:CSI09:1,2017-01-04T00:00:00Z,29.1015,-89.9782,0.0,6.957,261.0,,'11111222,11111222,99999999' 
WAVCIS,ioos:station:WAVCIS:CSI09:1,2017-01-04T01:00:00Z,29.1015,-89.9782,0.0,5.865,266.0,,'11111222,11111222,99999999' 
WAVCIS,ioos:station:WAVCIS:CSI09:1,2017-01-04T02:00:00Z,29.1015,-89.9782,0.0,5.529,250.0,,'11111222,11111222,99999999' 
WAVCIS,ioos:station:WAVCIS:CSI09:1,2017-01-04T03:00:00Z,29.1015,-89.9782,0.0,5.943,248.0,,'11111222,11111222,99999999' 
WAVCIS,ioos:station:WAVCIS:CSI09:1,2017-01-04T04:00:00Z,29.1015,-89.9782,0.0,5.979,241.0,,'11111222,11111222,99999999' 
WAVCIS,ioos:station:WAVCIS:CSI09:1,2017-01-04T05:00:00Z,29.1015,-89.9782,0.0,6.959,256.0,,'11111222,11111222,99999999' 
WAVCIS,ioos:station:WAVCIS:CSI09:1,2017-01-04T06:00:00Z,29.1015,-89.9782,0.0,6.937,268.0,,'11111222,11111222,99999999' 
WAVCIS,ioos:station:WAVCIS:CSI09:1,2017-01-04T07:00:00Z,29.1015,-89.9782,0.0,6.951,275.0,,'11111222,11111222,99999999' 
WAVCIS,ioos:station:WAVCIS:CSI09:1,2017-01-04T08:00:00Z,29.1015,-89.9782,0.0,5.339,291.0,,'11111222,11111222,99999999' 
WAVCIS,ioos:station:WAVCIS:CSI09:1,2017-01-04T09:00:00Z,29.1015,-89.9782,0.0,7.67,309.0,,'11111222,11111222,99999999' 
WAVCIS,ioos:station:WAVCIS:CSI09:1,2017-01-04T10:00:00Z,29.1015,-89.9782,0.0,8.33,316.0,,'11111222,11111222,99999999' 
WAVCIS,ioos:station:WAVCIS:CSI09:1,2017-01-04T11:00:00Z,29.1015,-89.9782,0.0,9.08,336.0,,'11111222,11111222,99999999' 
WAVCIS,ioos:station:WAVCIS:CSI09:1,2017-01-04T12:00:00Z,29.1015,-89.9782,0.0,11.43,357.0,,'11111222,11111222,99999999' 
WAVCIS,ioos:station:WAVCIS:CSI09:1,2017-01-04T13:00:00Z,29.1015,-89.9782,0.0,9.65,359.0,,'11111222,11111222,99999999' 
WAVCIS,ioos:station:WAVCIS:CSI09:1,2017-01-04T14:00:00Z,29.1015,-89.9782,0.0,12.09,358.0,,'11111222,11111222,99999999' 
WAVCIS,ioos:station:WAVCIS:CSI09:1,2017-01-04T15:00:00Z,29.1015,-89.9782,0.0,8.93,16.0,,'11111222,11111222,99999999' 
WAVCIS,ioos:station:WAVCIS:CSI09:1,2017-01-04T16:00:00Z,29.1015,-89.9782,0.0,9.58,10.0,,'11111222,11111222,99999999' 
WAVCIS,ioos:station:WAVCIS:CSI09:1,2017-01-04T17:00:00Z,29.1015,-89.9782,0.0,9.42,5.0,,'11111222,11111222,99999999' 
WAVCIS,ioos:station:WAVCIS:CSI09:1,2017-01-04T18:00:00Z,29.1015,-89.9782,0.0,9.1,13.0,,'11111222,11111222,99999999' 
WAVCIS,ioos:station:WAVCIS:CSI09:1,2017-01-04T19:00:00Z,29.1015,-89.9782,0.0,6.703,18.0,,'11111222,11111222,99999999' 
WAVCIS,ioos:station:WAVCIS:CSI09:1,2017-01-04T20:00:00Z,29.1015,-89.9782,0.0,5.767,348.0,,'11111222,11111222,99999999' 
WAVCIS,ioos:station:WAVCIS:CSI09:1,2017-01-04T21:00:00Z,29.1015,-89.9782,0.0,6.031,337.0,,'11111222,11111222,99999999' 
WAVCIS,ioos:station:WAVCIS:CSI09:1,2017-01-04T22:00:00Z,29.1015,-89.9782,0.0,4.555,3.0,,'11111222,11111222,99999999' 
WAVCIS,ioos:station:WAVCIS:CSI09:1,2017-01-04T23:00:00Z,29.1015,-89.9782,0.0,5.072,1.0,,'11111222,11111222,99999999' 
WAVCIS,ioos:station:WAVCIS:CSI09:1,2017-01-05T00:00:00Z,29.1015,-89.9782,0.0,6.664,340.0,,'11111222,11111222,99999999' 
WAVCIS,ioos:station:WAVCIS:CSI09:1,2017-01-05T01:00:00Z,29.1015,-89.9782,0.0,7.52,17.0,,'11111222,11111222,99999999' 
WAVCIS,ioos:station:WAVCIS:CSI09:1,2017-01-05T02:00:00Z,29.1015,-89.9782,0.0,7.41,30.0,,'11111222,11111222,99999999' 
WAVCIS,ioos:station:WAVCIS:CSI09:1,2017-01-05T03:00:00Z,29.1015,-89.9782,0.0,7.75,34.0,,'11111222,11111222,99999999' 
WAVCIS,ioos:station:WAVCIS:CSI09:1,2017-01-05T04:00:00Z,29.1015,-89.9782,0.0,5.892,43.0,,'11111222,11111222,99999999' 
WAVCIS,ioos:station:WAVCIS:CSI09:1,2017-01-05T05:00:00Z,29.1015,-89.9782,0.0,5.382,51.0,,'11111222,11111222,99999999' 
WAVCIS,ioos:station:WAVCIS:CSI09:1,2017-01-05T06:00:00Z,29.1015,-89.9782,0.0,5.135,81.0,,'11111222,11111222,99999999' 
WAVCIS,ioos:station:WAVCIS:CSI09:1,2017-01-05T07:00:00Z,29.1015,-89.9782,0.0,4.092,84.0,,'11111222,11111222,99999999' 
WAVCIS,ioos:station:WAVCIS:CSI09:1,2017-01-05T08:00:00Z,29.1015,-89.9782,0.0,3.296,117.0,,'11111222,11111222,99999999' 
WAVCIS,ioos:station:WAVCIS:CSI09:1,2017-01-05T09:00:00Z,29.1015,-89.9782,0.0,2.802,129.0,,'11111222,11111222,99999999' 
WAVCIS,ioos:station:WAVCIS:CSI09:1,2017-01-05T10:00:00Z,29.1015,-89.9782,0.0,3.593,137.0,,'11111222,11111222,99999999' 
WAVCIS,ioos:station:WAVCIS:CSI09:1,2017-01-05T11:00:00Z,29.1015,-89.9782,0.0,1.292,117.0,,'11111222,11111222,99999999' 
WAVCIS,ioos:station:WAVCIS:CSI09:1,2017-01-05T12:00:00Z,29.1015,-89.9782,0.0,0.798,98.0,,'11111222,11111222,99999999' 
WAVCIS,ioos:station:WAVCIS:CSI09:1,2017-01-05T13:00:00Z,29.1015,-89.9782,0.0,1.874,111.0,,'11111222,11111222,99999999' 
WAVCIS,ioos:station:WAVCIS:CSI09:1,2017-01-05T14:00:00Z,29.1015,-89.9782,0.0,2.944,109.0,,'11111222,11111222,99999999' 
WAVCIS,ioos:station:WAVCIS:CSI09:1,2017-01-05T15:00:00Z,29.1015,-89.9782,0.0,2.85,119.0,,'11111222,11111222,99999999' 
WAVCIS,ioos:station:WAVCIS:CSI09:1,2017-01-05T16:00:00Z,29.1015,-89.9782,0.0,2.862,125.0,,'11111222,11111222,99999999' 
WAVCIS,ioos:station:WAVCIS:CSI09:1,2017-01-05T17:00:00Z,29.1015,-89.9782,0.0,3.132,130.0,,'11111222,11111222,99999999' 
WAVCIS,ioos:station:WAVCIS:CSI09:1,2017-01-05T18:00:00Z,29.1015,-89.9782,0.0,3.478,133.0,,'11111222,11111222,99999999' 
WAVCIS,ioos:station:WAVCIS:CSI09:1,2017-01-05T19:00:00Z,29.1015,-89.9782,0.0,2.664,137.0,,'11111222,11111222,99999999' 
WAVCIS,ioos:station:WAVCIS:CSI09:1,2017-01-05T20:00:00Z,29.1015,-89.9782,0.0,2.537,85.0,,'11111222,11111222,99999999' 
WAVCIS,ioos:station:WAVCIS:CSI09:1,2017-01-05T21:00:00Z,29.1015,-89.9782,0.0,2.39,79.0,,'11111222,11111222,99999999' 
WAVCIS,ioos:station:WAVCIS:CSI09:1,2017-01-05T22:00:00Z,29.1015,-89.9782,0.0,2.993,78.0,,'11111222,11111222,99999999' 
WAVCIS,ioos:station:WAVCIS:CSI09:1,2017-01-05T23:00:00Z,29.1015,-89.9782,0.0,2.529,98.0,,'11111222,11111222,99999999' 
WAVCIS,ioos:station:WAVCIS:CSI09:1,2017-01-06T00:00:00Z,29.1015,-89.9782,0.0,3.382,103.0,,'11111222,11111222,99999999' 
WAVCIS,ioos:station:WAVCIS:CSI09:1,2017-01-06T01:00:00Z,29.1015,-89.9782,0.0,4.087,121.0,,'11111222,11111222,99999999' 
WAVCIS,ioos:station:WAVCIS:CSI09:1,2017-01-06T02:00:00Z,29.1015,-89.9782,0.0,3.63,139.0,,'11111222,11111222,99999999' 
WAVCIS,ioos:station:WAVCIS:CSI09:1,2017-01-06T03:00:00Z,29.1015,-89.9782,0.0,5.862,157.0,,'11111222,11111222,99999999' 
WAVCIS,ioos:station:WAVCIS:CSI09:1,2017-01-06T04:00:00Z,29.1015,-89.9782,0.0,5.262,167.0,,'11111222,11111222,99999999' 
WAVCIS,ioos:station:WAVCIS:CSI09:1,2017-01-06T05:00:00Z,29.1015,-89.9782,0.0,5.399,171.0,,'11111222,11111222,99999999' 
WAVCIS,ioos:station:WAVCIS:CSI09:1,2017-01-06T06:00:00Z,29.1015,-89.9782,0.0,5.279,172.0,,'11111222,11111222,99999999' 
WAVCIS,ioos:station:WAVCIS:CSI09:1,2017-01-06T07:00:00Z,29.1015,-89.9782,0.0,5.945,176.0,,'11111222,11111222,99999999' 
WAVCIS,ioos:station:WAVCIS:CSI09:1,2017-01-06T08:00:00Z,29.1015,-89.9782,0.0,6.095,178.0,,'11111222,11111222,99999999' 
WAVCIS,ioos:station:WAVCIS:CSI09:1,2017-01-06T09:00:00Z,29.1015,-89.9782,0.0,6.838,6.0,,'11111222,11111222,99999999' 
WAVCIS,ioos:station:WAVCIS:CSI09:1,2017-01-06T10:00:00Z,29.1015,-89.9782,0.0,9.48,10.0,,'11111222,11111222,99999999' 
WAVCIS,ioos:station:WAVCIS:CSI09:1,2017-01-06T11:00:00Z,29.1015,-89.9782,0.0,9.57,23.0,,'11111222,11111222,99999999' 
WAVCIS,ioos:station:WAVCIS:CSI09:1,2017-01-06T12:00:00Z,29.1015,-89.9782,0.0,9.53,28.0,,'11111222,11111222,99999999' 
WAVCIS,ioos:station:WAVCIS:CSI09:1,2017-01-06T13:00:00Z,29.1015,-89.9782,0.0,9.98,25.0,,'11111222,11111222,99999999' 
WAVCIS,ioos:station:WAVCIS:CSI09:1,2017-01-06T14:00:00Z,29.1015,-89.9782,0.0,11.53,37.0,,'11111222,11111222,99999999' 
WAVCIS,ioos:station:WAVCIS:CSI09:1,2017-01-06T15:00:00Z,29.1015,-89.9782,0.0,10.75,35.0,,'11111222,11111222,99999999' 
WAVCIS,ioos:station:WAVCIS:CSI09:1,2017-01-06T16:00:00Z,29.1015,-89.9782,0.0,13.17,11.0,,'11111222,11111222,99999999' 
WAVCIS,ioos:station:WAVCIS:CSI09:1,2017-01-06T17:00:00Z,29.1015,-89.9782,0.0,14.55,18.0,,'11111222,11111222,99999999' 
WAVCIS,ioos:station:WAVCIS:CSI09:1,2017-01-06T18:00:00Z,29.1015,-89.9782,0.0,14.19,20.0,,'11111222,11111222,99999999' 
WAVCIS,ioos:station:WAVCIS:CSI09:1,2017-01-06T19:00:00Z,29.1015,-89.9782,0.0,14.13,16.0,,'11111222,11111222,99999999' 
WAVCIS,ioos:station:WAVCIS:CSI09:1,2017-01-06T20:00:00Z,29.1015,-89.9782,0.0,15.61,27.0,,'11111222,11111222,99999999' 
WAVCIS,ioos:station:WAVCIS:CSI09:1,2017-01-06T21:00:00Z,29.1015,-89.9782,0.0,13.32,13.0,,'11111222,11111222,99999999' 
WAVCIS,ioos:station:WAVCIS:CSI09:1,2017-01-06T22:00:00Z,29.1015,-89.9782,0.0,13.81,26.0,,'11111222,11111222,99999999' 
WAVCIS,ioos:station:WAVCIS:CSI09:1,2017-01-06T23:00:00Z,29.1015,-89.9782,0.0,15.27,28.0,,'11111222,11111222,99999999' 
WAVCIS,ioos:station:WAVCIS:CSI09:1,2017-01-07T00:00:00Z,29.1015,-89.9782,0.0,16.01,12.0,,'11111222,11111222,99999999' 
WAVCIS,ioos:station:WAVCIS:CSI09:1,2017-01-07T01:00:00Z,29.1015,-89.9782,0.0,16.0,353.0,,'11111222,11111222,99999999' 
WAVCIS,ioos:station:WAVCIS:CSI09:1,2017-01-07T02:00:00Z,29.1015,-89.9782,0.0,18.75,357.0,,'11111222,11111222,99999999' 
WAVCIS,ioos:station:WAVCIS:CSI09:1,2017-01-07T03:00:00Z,29.1015,-89.9782,0.0,16.7,5.0,,'11111222,11111222,99999999' 
WAVCIS,ioos:station:WAVCIS:CSI09:1,2017-01-07T04:00:00Z,29.1015,-89.9782,0.0,15.48,6.0,,'11111222,11111222,99999999' 
WAVCIS,ioos:station:WAVCIS:CSI09:1,2017-01-07T05:00:00Z,29.1015,-89.9782,0.0,15.68,358.0,,'11111222,11111222,99999999' 
WAVCIS,ioos:station:WAVCIS:CSI09:1,2017-01-07T06:00:00Z,29.1015,-89.9782,0.0,16.19,352.0,,'11111222,11111222,99999999' 
WAVCIS,ioos:station:WAVCIS:CSI09:1,2017-01-07T07:00:00Z,29.1015,-89.9782,0.0,16.74,342.0,,'11111222,11111222,99999999' 
WAVCIS,ioos:station:WAVCIS:CSI09:1,2017-01-07T08:00:00Z,29.1015,-89.9782,0.0,16.88,345.0,,'11111222,11111222,99999999' 
WAVCIS,ioos:station:WAVCIS:CSI09:1,2017-01-07T09:00:00Z,29.1015,-89.9782,0.0,16.54,347.0,,'11111222,11111222,99999999' 
WAVCIS,ioos:station:WAVCIS:CSI09:1,2017-01-07T10:00:00Z,29.1015,-89.9782,0.0,16.8,356.0,,'11111222,11111222,99999999' 
WAVCIS,ioos:station:WAVCIS:CSI09:1,2017-01-07T11:00:00Z,29.1015,-89.9782,0.0,17.23,353.0,,'11111222,11111222,99999999' 
WAVCIS,ioos:station:WAVCIS:CSI09:1,2017-01-07T12:00:00Z,29.1015,-89.9782,0.0,16.27,352.0,,'11111222,11111222,99999999' 
WAVCIS,ioos:station:WAVCIS:CSI09:1,2017-01-07T13:00:00Z,29.1015,-89.9782,0.0,16.42,353.0,,'11111222,11111222,99999999' 
WAVCIS,ioos:station:WAVCIS:CSI09:1,2017-01-07T14:00:00Z,29.1015,-89.9782,0.0,15.85,356.0,,'11111222,11111222,99999999' 
WAVCIS,ioos:station:WAVCIS:CSI09:1,2017-01-07T15:00:00Z,29.1015,-89.9782,0.0,14.62,8.0,,'11111222,11111222,99999999' 
WAVCIS,ioos:station:WAVCIS:CSI09:1,2017-01-07T16:00:00Z,29.1015,-89.9782,0.0,13.21,357.0,,'11111222,11111222,99999999' 
WAVCIS,ioos:station:WAVCIS:CSI09:1,2017-01-07T17:00:00Z,29.1015,-89.9782,0.0,13.99,358.0,,'11111222,11111222,99999999' 
WAVCIS,ioos:station:WAVCIS:CSI09:1,2017-01-07T18:00:00Z,29.1015,-89.9782,0.0,12.56,347.0,,'11111222,11111222,99999999' 
WAVCIS,ioos:station:WAVCIS:CSI09:1,2017-01-07T19:00:00Z,29.1015,-89.9782,0.0,11.56,344.0,,'11111222,11111222,99999999' 
WAVCIS,ioos:station:WAVCIS:CSI09:1,2017-01-07T20:00:00Z,29.1015,-89.9782,0.0,11.84,347.0,,'11111222,11111222,99999999' 
WAVCIS,ioos:station:WAVCIS:CSI09:1,2017-01-07T21:00:00Z,29.1015,-89.9782,0.0,11.77,352.0,,'11111222,11111222,99999999' 
WAVCIS,ioos:station:WAVCIS:CSI09:1,2017-01-07T22:00:00Z,29.1015,-89.9782,0.0,11.53,353.0,,'11111222,11111222,99999999' 
WAVCIS,ioos:station:WAVCIS:CSI09:1,2017-01-07T23:00:00Z,29.1015,-89.9782,0.0,11.32,351.0,,'11111222,11111222,99999999' 
WAVCIS,ioos:station:WAVCIS:CSI09:1,2017-01-08T00:00:00Z,29.1015,-89.9782,0.0,13.0,356.0,,'11111222,11111222,99999999' 
WAVCIS,ioos:station:WAVCIS:CSI09:1,2017-01-08T01:00:00Z,29.1015,-89.9782,0.0,13.2,2.0,,'11111222,11111222,99999999' 
WAVCIS,ioos:station:WAVCIS:CSI09:1,2017-01-08T02:00:00Z,29.1015,-89.9782,0.0,13.72,14.0,,'11111222,11111222,99999999' 
WAVCIS,ioos:station:WAVCIS:CSI09:1,2017-01-08T03:00:00Z,29.1015,-89.9782,0.0,14.43,9.0,,'11111222,11111222,99999999' 
WAVCIS,ioos:station:WAVCIS:CSI09:1,2017-01-08T04:00:00Z,29.1015,-89.9782,0.0,14.6,17.0,,'11111222,11111222,99999999' 
WAVCIS,ioos:station:WAVCIS:CSI09:1,2017-01-08T05:00:00Z,29.1015,-89.9782,0.0,13.8,17.0,,'11111222,11111222,99999999' 
WAVCIS,ioos:station:WAVCIS:CSI09:1,2017-01-08T06:00:00Z,29.1015,-89.9782,0.0,12.13,20.0,,'11111222,11111222,99999999' 
WAVCIS,ioos:station:WAVCIS:CSI09:1,2017-01-08T07:00:00Z,29.1015,-89.9782,0.0,12.62,22.0,,'11111222,11111222,99999999' 
WAVCIS,ioos:station:WAVCIS:CSI09:1,2017-01-08T08:00:00Z,29.1015,-89.9782,0.0,11.96,30.0,,'11111222,11111222,99999999' 
WAVCIS,ioos:station:WAVCIS:CSI09:1,2017-01-08T09:00:00Z,29.1015,-89.9782,0.0,11.62,29.0,,'11111222,11111222,99999999' 
WAVCIS,ioos:station:WAVCIS:CSI09:1,2017-01-08T10:00:00Z,29.1015,-89.9782,0.0,12.14,26.0,,'11111222,11111222,99999999' 
WAVCIS,ioos:station:WAVCIS:CSI09:1,2017-01-08T11:00:00Z,29.1015,-89.9782,0.0,10.56,27.0,,'11111222,11111222,99999999' 
WAVCIS,ioos:station:WAVCIS:CSI09:1,2017-01-08T12:00:00Z,29.1015,-89.9782,0.0,9.81,32.0,,'11111222,11111222,99999999' 
WAVCIS,ioos:station:WAVCIS:CSI09:1,2017-01-08T13:00:00Z,29.1015,-89.9782,0.0,10.7,27.0,,'11111222,11111222,99999999' 
WAVCIS,ioos:station:WAVCIS:CSI09:1,2017-01-08T14:00:00Z,29.1015,-89.9782,0.0,10.29,32.0,,'11111222,11111222,99999999' 
WAVCIS,ioos:station:WAVCIS:CSI09:1,2017-01-08T15:00:00Z,29.1015,-89.9782,0.0,10.99,38.0,,'11111222,11111222,99999999' 
WAVCIS,ioos:station:WAVCIS:CSI09:1,2017-01-08T16:00:00Z,29.1015,-89.9782,0.0,10.35,41.0,,'11111222,11111222,99999999' 
WAVCIS,ioos:station:WAVCIS:CSI09:1,2017-01-08T17:00:00Z,29.1015,-89.9782,0.0,10.2,47.0,,'11111222,11111222,99999999' 
WAVCIS,ioos:station:WAVCIS:CSI09:1,2017-01-08T18:00:00Z,29.1015,-89.9782,0.0,8.47,55.0,,'11111222,11111222,99999999' 
WAVCIS,ioos:station:WAVCIS:CSI09:1,2017-01-08T19:00:00Z,29.1015,-89.9782,0.0,9.0,59.0,,'11111222,11111222,99999999' 
WAVCIS,ioos:station:WAVCIS:CSI09:1,2017-01-08T20:00:00Z,29.1015,-89.9782,0.0,8.59,59.0,,'11111222,11111222,99999999' 
WAVCIS,ioos:station:WAVCIS:CSI09:1,2017-01-08T21:00:00Z,29.1015,-89.9782,0.0,8.38,59.0,,'11111222,11111222,99999999' 
WAVCIS,ioos:station:WAVCIS:CSI09:1,2017-01-08T22:00:00Z,29.1015,-89.9782,0.0,7.94,57.0,,'11111222,11111222,99999999' 
WAVCIS,ioos:station:WAVCIS:CSI09:1,2017-01-08T23:00:00Z,29.1015,-89.9782,0.0,8.22,61.0,,'11111222,11111222,99999999' 
WAVCIS,ioos:station:WAVCIS:CSI09:1,2017-01-09T00:00:00Z,29.1015,-89.9782,0.0,7.84,57.0,,'11111222,11111222,99999999' 
WAVCIS,ioos:station:WAVCIS:CSI09:1,2017-01-09T01:00:00Z,29.1015,-89.9782,0.0,7.58,62.0,,'11111222,11111222,99999999' 
WAVCIS,ioos:station:WAVCIS:CSI09:1,2017-01-09T02:00:00Z,29.1015,-89.9782,0.0,7.34,73.0,,'11111222,11111222,99999999' 
WAVCIS,ioos:station:WAVCIS:CSI09:1,2017-01-09T03:00:00Z,29.1015,-89.9782,0.0,7.03,66.0,,'11111222,11111222,99999999' 
WAVCIS,ioos:station:WAVCIS:CSI09:1,2017-01-09T04:00:00Z,29.1015,-89.9782,0.0,8.58,55.0,,'11111222,11111222,99999999' 
WAVCIS,ioos:station:WAVCIS:CSI09:1,2017-01-09T05:00:00Z,29.1015,-89.9782,0.0,8.75,48.0,,'11111222,11111222,99999999' 
WAVCIS,ioos:station:WAVCIS:CSI09:1,2017-01-09T06:00:00Z,29.1015,-89.9782,0.0,7.84,59.0,,'11111222,11111222,99999999' 
WAVCIS,ioos:station:WAVCIS:CSI09:1,2017-01-09T07:00:00Z,29.1015,-89.9782,0.0,8.6,68.0,,'11111222,11111222,99999999' 